Location: Unspecified
(48.5539°N, 71.6350°W)
Time: 22:38:45
(UTC-05:00)

ISS - Pass Details

Date: 31 January 2019
Orbit: 403 x 411 km, 51.6° (Epoch: 21 February)

Event Time Altitude Azimuth Distance (km) Brightness Sun altitude
Rises 18:20:52 0° 280° (W) 2,336 1.5 -16.2°
Reaches altitude 10° 18:23:00 10° 286° (WNW) 1,477 0.1 -16.6°
Maximum altitude 18:26:13 47° 2° (N) 556 -3.3 -17.1°
Enters shadow 18:26:48 41° 37° (NE) 612 -3.3 -17.2°
Drops below altitude 10° 18:29:26 10° 78° (ENE) 1,481 - -17.6°
Sets 18:31:35 0° 84° (E) 2,344 - -18.0°
